Location: Central Springs High School
(43.2862°N, 93.1962°W)
Time: 07:49:38
(UTC+00:00)

BlueWalker 3 - Pass Details

Date: 20 October 2024
Orbit: 470 x 482 km, 53.2° (Epoch: 03 November)

Event Time Altitude Azimuth Distance (km) Brightness Sun altitude
Exits shadow 10:47:22 30° 344° (NNW) 874 3.0 -20.0°
Maximum altitude 10:48:33 39° 27° (NNE) 714 2.9 -19.8°
Drops below altitude 10° 10:52:02 10° 98° (E) 1,630 5.7 -19.1°
Sets 10:54:16 0° 106° (ESE) 2,506 6.8 -18.7°
